Location: Bilsen
(53.7722°N, 9.8765°E)
Time: 05:59:48
(UTC+00:00)

PSLV R/B - Pass Details

Date: 18 February 2020
Orbit: 505 x 578 km, 97.8° (Epoch: 09 April)

Event Time Altitude Azimuth Distance (km) Brightness Sun altitude
Rises 05:14:37 0° 10° (N) 2,626 7.4 -12.4°
Reaches altitude 10° 05:16:44 10° 5° (N) 1,739 6.4 -12.1°
Maximum altitude 05:20:21 49° 291° (WNW) 671 3.9 -11.6°
Drops below altitude 10° 05:23:59 10° 216° (SW) 1,749 6.1 -11.0°
Sets 05:26:08 0° 210° (SSW) 2,642 7.0 -10.7°
